Flag for USA

Past Weather in Columbus West Industrial Park, Ohio, USA — Yesterday and Last 2 Weeks

Now
64 °F

Partly cloudy.


Feels Like: 64 °F
Forecast: 60 / 46 °F
Wind: 10 mph from South

Location: John Glenn Columbus International Airport

Current Time: Oct 16, 2019 at 12:48:47 am

Latest Report: Oct 15, 2019 at 11:51 pm


Visibility: 10 mi

Pressure: 29.76 "Hg

Humidity: 58%

Dew Point: 49 °F

Location of Columbus West Industrial ParkLocation

Past Weather in Columbus West Industrial Park — Graph

°F

Columbus West Industrial Park Temperature Yesterday

Maximum temperature yesterday: 73 °F (at 3:51 pm)
Minimum temperature yesterday: 40 °F (at 4:51 am)
Average temperature yesterday: 57 °F

High & Low Weather Summary for the Past Weeks

 TemperatureHumidityPressure
High93 °F (Oct 1, 1:51 pm)97% (Oct 8, 12:51 am)30.30 "Hg (Oct 8, 12:51 am)
Low38 °F (Oct 13, 5:51 am)20% (Oct 13, 4:51 pm)29.79 "Hg (Oct 15, 10:51 pm)
Average62 °F64%30.08 "Hg
* Reported Sep 30 10:51 pm — Oct 15 10:51 pm, Columbus West Industrial Park. Weather by CustomWeather, © 2019

Note: Actual official high and low records may vary slightly from our data, if they occured in-between our weather recording intervals... More about our weather records

Advertising

Columbus West Industrial Park Weather History for the Previous 24 Hours

Scroll right to see more
 ConditionsComfort  
Time TempWeatherWind HumidityBarometerVisibility
10:51 pm
Tue, Oct 15
62 °FPassing clouds.7 mph56%29.79 "Hg10 mi
9:51 pm64 °FPassing clouds.8 mph47%29.81 "Hg10 mi
8:51 pm64 °FPassing clouds.7 mph45%29.82 "Hg10 mi
7:51 pm67 °FPassing clouds.6 mph39%29.83 "Hg10 mi
6:51 pm70 °FPassing clouds.9 mph35%29.85 "Hg10 mi
5:51 pm72 °FPassing clouds.13 mph30%29.86 "Hg10 mi
4:51 pm73 °FPassing clouds.17 mph26%29.86 "Hg10 mi
3:51 pm73 °FSunny.14 mph22%29.88 "Hg10 mi
2:51 pm72 °FSunny.10 mph21%29.93 "Hg10 mi
1:51 pm70 °FSunny.9 mph23%29.98 "Hg10 mi
12:51 pm66 °FSunny.8 mph36%30.02 "Hg10 mi
11:51 am63 °FSunny.8 mph40%30.06 "Hg10 mi
10:51 am59 °FPassing clouds.7 mph46%30.08 "Hg10 mi
9:51 am54 °FPassing clouds.6 mph57%30.10 "Hg10 mi
8:51 am47 °FPassing clouds.3 mph71%30.12 "Hg10 mi
7:51 am43 °FPassing clouds.No wind76%30.12 "Hg10 mi
6:51 am42 °FPassing clouds.No wind79%30.12 "Hg10 mi
5:51 am40 °FPassing clouds.No wind83%30.12 "Hg10 mi
4:51 am40 °FPassing clouds.No wind83%30.11 "Hg10 mi
3:51 am42 °FPassing clouds.No wind79%30.12 "Hg10 mi
2:51 am41 °FPassing clouds.No wind82%30.13 "Hg10 mi
1:51 am43 °FPassing clouds.No wind79%30.12 "Hg10 mi
12:51 am44 °FPassing clouds.3 mph76%30.12 "Hg10 mi
Weather by CustomWeather, © 2019

See weather overview